Location: Poughquag
(41.6090°N, 73.6820°W)
Time: 11:54:04
(UTC-04:00)

Transit 2A - Pass Details

Date: 07 June 2020
Orbit: 592 x 967 km, 66.7° (Epoch: 06 July)

Event Time Altitude Azimuth Distance (km) Brightness Sun altitude
Rises 14:08:40 0° 263° (W) 3,142 9.4 65.6°
Reaches altitude 10° 14:11:54 10° 286° (WNW) 2,303 8.8 65.1°
Maximum altitude 14:15:06 16° 323° (NW) 1,997 8.4 64.7°
Drops below altitude 10° 14:18:30 10° 0° (N) 2,465 8.6 64.2°
Sets 14:22:09 0° 22° (NNE) 3,484 9.2 63.7°
